YD1OCG-15 Weather Reports


Display with metric or nautical units.
time (UTC)temp
F
wind
direction
speed
MPH
gust
MPH
rain 1hr
in
rain 24hr
in
rain mn
in
humidity
%
barometer
mb
20260507003723 83 96 6.0 0.0 0.00 0.00 0.00 88 1012.0
20260507000723 82 122 5.0 0.0 0.00 0.00 0.00 92 1011.0
20260506233724 82 122 5.0 0.0 0.00 0.00 0.00 92 1011.0
20260506230723 80 113 4.0 0.0 0.00 0.00 0.00 88 1011.0
20260506223723 81 113 4.0 0.0 0.00 0.00 0.00 92 1011.0
20260506220723 80 105 3.0 0.0 0.00 0.00 0.00 89 1010.0
20260506213723 81 105 3.0 0.0 0.00 0.00 0.00 92 1010.0
20260506210723 80 155 3.0 0.0 0.00 0.00 0.00 89 1010.0
20260506203724 81 155 3.0 0.0 0.00 0.00 0.00 92 1010.0
20260506200724 80 171 4.0 0.0 0.00 0.00 0.00 88 1010.0
20260506193723 81 171 4.0 0.0 0.00 0.00 0.00 92 1010.0
20260506190723 81 158 4.0 0.0 0.00 0.00 0.00 90 1010.0
20260506183723 82 158 4.0 0.0 0.00 0.00 0.00 93 1010.0
20260506180724 81 126 4.0 0.0 0.00 0.00 0.00 92 1011.0
20260506173723 81 128 4.0 0.0 0.00 0.00 0.00 92 1011.0
20260506170723 81 128 5.0 0.0 0.00 0.00 0.00 87 1012.0
20260506163723 81 128 5.0 0.0 0.00 0.00 0.00 91 1012.0
20260506160723 80 127 4.0 0.0 0.00 0.00 0.00 88 1012.0
20260506153724 81 127 4.0 0.0 0.00 0.00 0.00 92 1012.0
20260506150723 81 124 3.0 0.0 0.00 0.00 0.00 92 1012.0
20260506143723 82 124 3.0 0.0 0.00 0.00 0.00 94 1012.0
20260506140728 83 137 3.0 0.0 0.00 0.00 0.00 94 1012.0
20260506133723 83 137 3.0 0.0 0.00 0.00 0.00 95 1012.0
20260506130723 86 103 2.0 0.0 0.00 0.00 0.00 91 1012.0
20260506123723 86 103 2.0 0.0 0.00 0.00 0.00 91 1012.0
20260506120723 83 67 1.0 0.0 0.00 0.00 0.00 89 1011.0
20260506113723 83 38 1.0 0.0 0.00 0.00 0.00 89 1011.0
20260506110724 81 358 2.0 0.0 0.00 0.00 0.00 86 1010.0
20260506103724 81 358 2.0 0.0 0.00 0.00 0.00 88 1010.0
20260506100723 82 358 4.0 0.0 0.00 0.00 0.00 83 1009.0
20260506093723 83 358 4.0 0.0 0.00 0.00 0.00 87 1009.0
20260506090723 83 358 6.0 0.0 0.00 0.00 0.00 82 1008.0
20260506083723 83 358 6.0 0.0 0.00 0.00 0.00 80 1008.0
20260506080723 84 350 8.0 0.0 0.00 0.00 0.00 81 1008.0
20260506060723 85 348 10.0 0.0 0.00 0.00 0.00 79 1008.0
20260506050723 85 344 10.0 0.0 0.00 0.00 0.00 81 1009.0
20260506043723 85 344 10.0 0.0 0.00 0.00 0.00 76 1009.0
20260506040723 84 354 9.0 0.0 0.00 0.00 0.00 87 1010.0
20260506033723 85 354 9.0 0.0 0.00 0.00 0.00 75 1010.0
20260506030723 85 16 6.0 0.0 0.00 0.00 0.00 89 1011.0
20260506023723 85 16 6.0 0.0 0.00 0.00 0.00 82 1011.0
20260506020723 85 43 5.0 0.0 0.00 0.00 0.00 92 1012.0
20260506013723 85 43 5.0 0.0 0.00 0.00 0.00 83 1012.0
20260506010723 84 107 4.0 0.0 0.00 0.00 0.00 85 1012.0